Ban Ang, Thailand

1:57 PM ICT on February 21, 2017 (GMT +0700)
Rayong

Weather History for VTBU - December, 2012

Change the Weather History Date:

Sunday, December 23, 2012

  Actual Average Record
Temperature  
Mean Temperature 83 °F -  
Max Temperature 91 °F 86 °F 92 °F (2016)
Min Temperature 75 °F 71 °F 60 °F (1999)
Cooling Degree Days 18    
Growing Degree Days 33 (Base 50)    
Moisture  
Dew Point 68 °F    
Average Humidity 62    
Maximum Humidity 89    
Minimum Humidity 38    
Precipitation  
Precipitation 0.00 in - - ()
Sea Level Pressure  
Sea Level Pressure 29.84 in    
Wind  
Wind Speed 3 mph ()    
Max Wind Speed 9 mph    
Max Gust Speed -    
Visibility 3.6 miles    
Events      
Averages and records for this station are not official NWS values.
T = Trace of Precipitation, MM = Missing Value Source: Averaged Metar Reports

Daily Weather History Graph

Daily Weather History Graph

Search for Another Location

Airport or City:

Trip Planner

Search our weather history database for the weather conditions in past years. The results will help you decide how hot, cold, wet, or windy it might be!

Date:

Astronomy

Dec. 23, 2012 Rise Set
Actual Time 6:32 AM ICT 5:55 PM ICT
Civil Twilight 6:09 AM ICT 6:18 PM ICT
Nautical Twilight 5:42 AM ICT 6:44 PM ICT
Astronomical Twilight 5:16 AM ICT 7:11 PM ICT
Moon 2:06 PM ICT (12/23) 2:10 AM ICT (12/23)
Length of Visible Light 12h 09m
Length of Day
11h 23m
Waxing Gibbous, 77% of the Moon is Illuminated
Dec 23
Waxing Gibbous
Dec 28
Full
Jan 5
Last Quarter
Jan 12
New
Jan 19
First Quarter

Hourly Weather History & Observations

Time (ICT) Temp. Heat Index Dew Point Humidity Pressure Visibility Wind Dir Wind Speed Gust Speed Precip Events Conditions
12:00 AM 78.8 °F - 73.4 °F 83% 29.83 in 2.5 mi North 2.3 mph - N/A   Mist
12:30 AM 78.8 °F - 73.4 °F 83% 29.83 in 3.1 mi NE 2.3 mph - N/A   Mist
1:00 AM 77.0 °F - 73.4 °F 89% 29.83 in 2.5 mi North 2.3 mph - N/A   Mist
1:30 AM 77.0 °F - 71.6 °F 83% 29.83 in 2.5 mi NE 2.3 mph - N/A   Mist
2:00 AM 77.0 °F - 71.6 °F 83% 29.80 in 2.5 mi NNE 2.3 mph - N/A   Mist
3:00 AM 77.0 °F - 71.6 °F 83% 29.80 in 2.5 mi NNE 2.3 mph - N/A   Mist
3:30 AM 77.0 °F - 71.6 °F 83% 29.80 in 2.5 mi NE 2.3 mph - N/A   Mist
4:00 AM 77.0 °F - 71.6 °F 83% 29.80 in 2.5 mi NNE 2.3 mph - N/A   Mist
4:30 AM 77.0 °F - 71.6 °F 83% 29.80 in 2.5 mi NE 3.5 mph - N/A   Mist
5:00 AM 77.0 °F - 69.8 °F 78% 29.80 in 2.5 mi North 3.5 mph - N/A   Mist
5:30 AM 75.2 °F - 69.8 °F 83% 29.83 in 2.5 mi NNE 3.5 mph - N/A   Mist
6:00 AM 75.2 °F - 68.0 °F 78% 29.83 in 3.1 mi NNE 3.5 mph - N/A   Mist
6:30 AM 75.2 °F - 69.8 °F 83% 29.83 in 3.7 mi NNW 2.3 mph - N/A   Unknown
7:30 AM 75.2 °F - 68.0 °F 78% 29.86 in 3.7 mi North 2.3 mph - N/A   Mostly Cloudy
8:00 AM 77.0 °F - 69.8 °F 78% 29.86 in 4.3 mi NNE 2.3 mph - N/A   Mostly Cloudy
8:30 AM 78.8 °F - 69.8 °F 74% 29.89 in 4.3 mi NE 2.3 mph - N/A   Mostly Cloudy
9:00 AM 80.6 °F 83.9 °F 69.8 °F 70% 29.89 in 4.3 mi North 4.6 mph - N/A   Mostly Cloudy
9:30 AM 86.0 °F 89.4 °F 68.0 °F 55% 29.89 in 4.3 mi ENE 9.2 mph - N/A   Mostly Cloudy
10:00 AM 87.8 °F 92.6 °F 69.8 °F 55% 29.89 in 4.3 mi ENE 6.9 mph - N/A   Mostly Cloudy
10:30 AM 89.6 °F 93.4 °F 68.0 °F 49% 29.89 in 4.3 mi NNE 9.2 mph - N/A   Mostly Cloudy
11:30 AM 91.4 °F 93.2 °F 64.4 °F 41% 29.89 in 4.3 mi SSE 6.9 mph - N/A   Mostly Cloudy
12:00 PM 91.4 °F 92.1 °F 62.6 °F 38% 29.86 in 4.3 mi East 5.8 mph - N/A   Mostly Cloudy
12:30 PM 91.4 °F 93.2 °F 64.4 °F 41% 29.86 in 4.3 mi ESE 6.9 mph - N/A   Mostly Cloudy
1:00 PM 91.4 °F 93.2 °F 64.4 °F 41% 29.83 in 4.3 mi ESE 2.3 mph - N/A   Mostly Cloudy
1:30 PM 91.4 °F 93.2 °F 64.4 °F 41% 29.83 in 4.3 mi ESE 2.3 mph - N/A   Mostly Cloudy
2:30 PM 91.4 °F 93.2 °F 64.4 °F 41% 29.80 in 4.3 mi SE 3.5 mph - N/A   Mostly Cloudy
3:00 PM 91.4 °F 94.0 °F 66.2 °F 43% 29.80 in 4.3 mi SSE 9.2 mph - N/A   Mostly Cloudy
3:30 PM 91.4 °F 95.4 °F 68.0 °F 46% 29.77 in 4.3 mi SSE 6.9 mph - N/A   Mostly Cloudy
4:00 PM 89.6 °F 92.2 °F 66.2 °F 46% 29.77 in 4.3 mi South 6.9 mph - N/A   Mostly Cloudy
4:30 PM 91.4 °F 94.0 °F 66.2 °F 43% 29.77 in 4.3 mi SSE 6.9 mph - N/A   Mostly Cloudy
5:00 PM 91.4 °F 92.1 °F 62.6 °F 38% 29.77 in 4.3 mi ENE 5.8 mph - N/A   Mostly Cloudy
5:30 PM 91.4 °F 93.2 °F 64.4 °F 41% 29.80 in 4.3 mi NE 3.5 mph - N/A   Mostly Cloudy
6:00 PM 89.6 °F 91.1 °F 64.4 °F 43% 29.80 in 4.3 mi ENE 6.9 mph - N/A   Mostly Cloudy
6:30 PM 87.8 °F 88.5 °F 62.6 °F 43% 29.83 in 3.7 mi NE 3.5 mph - N/A   Mostly Cloudy
7:00 PM 87.8 °F 88.5 °F 62.6 °F 43% 29.83 in 3.7 mi NE 3.5 mph - N/A   Mostly Cloudy
7:30 PM 86.0 °F 86.6 °F 62.6 °F 45% 29.83 in 3.7 mi ENE 3.5 mph - N/A   Mostly Cloudy
8:00 PM 84.2 °F 85.6 °F 64.4 °F 51% 29.86 in 3.7 mi ENE 3.5 mph - N/A   Unknown
8:30 PM 84.2 °F 85.6 °F 64.4 °F 51% 29.86 in 3.7 mi NE 3.5 mph - N/A   Unknown
9:00 PM 80.6 °F 82.7 °F 66.2 °F 61% 29.89 in 3.7 mi NNE 2.3 mph - N/A   Unknown
9:30 PM 78.8 °F - 66.2 °F 65% 29.89 in 3.1 mi NNE 2.3 mph - N/A   Mist
10:00 PM 78.8 °F - 66.2 °F 65% 29.89 in 3.1 mi NNE 3.5 mph - N/A   Mist
10:30 PM 77.0 °F - 68.0 °F 74% 29.89 in 3.1 mi North 4.6 mph - N/A   Mist
11:00 PM 77.0 °F - 66.2 °F 69% 29.89 in 3.1 mi NNE 2.3 mph - N/A   Mist
11:30 PM 77.0 °F - 68.0 °F 74% 29.89 in 3.1 mi NNE 4.6 mph - N/A   Mist